{"data":{"norad_id":68712,"intl_designator":"2026-081P","name":"STARLINK-37318","alt_names":[],"object_type":"PAYLOAD","status":"ACTIVE","operator":null,"country":"US","launch_date":"2026-04-14","launch_site_code":"AFETR","launch_vehicle":null,"mission":null,"orbit_class":"UNKNOWN","rcs_meters":null,"size_class":null,"mass_kg":null,"dimensions":null,"purposes":["comms"],"wikipedia_slug":null,"has_3d_model":false,"image_url":null,"decayed_at":null,"tle_current":{"epoch":"2026-09-19T22:50:00.172032Z","epoch_age_seconds":91684,"freshness":"FRESH","line1":"1 68712U 26081P   26262.95139088  .00019891  00000+0  59814-3 0  9999","line2":"2 68712  53.1577 208.3315 0002385  72.8120 287.3144 15.34406333 24539","mean_motion":15.34406333,"eccentricity":0.0002385,"inclination_deg":53.1577,"raan_deg":208.3315,"arg_perigee_deg":72.812,"mean_anomaly_deg":287.3144,"bstar":0.00059814,"rev_number":2453,"period_min":93.847370740746,"perigee_km":461.05288135321,"apogee_km":464.31595316924,"semimajor_km":6840.8214172612,"source":"CELESTRAK","updated_at":"2026-09-20T09:00:43.960326Z"}}}